Location: Mahannah Oil Field
(37.4664°N, 96.6003°W)
Time: 01:38:04
(UTC+00:00)

Tiros 1 despin weight - Pass Details

Date: 02 February 2021
Orbit: 593 x 642 km, 48.2° (Epoch: 25 February)

Event Time Altitude Azimuth Distance (km) Brightness Sun altitude
Rises 22:27:37 0° 305° (NW) 2,885 ? 14.1°
Reaches altitude 10° 22:29:59 10° 310° (NW) 1,970 ? 13.7°
Maximum altitude 22:34:26 58° 30° (NNE) 705 ? 12.9°
Drops below altitude 10° 22:38:49 10° 110° (ESE) 1,934 ? 12.2°
Sets 22:41:07 0° 114° (ESE) 2,828 ? 11.8°
